Home > Weather > Medina > Past weeks

Flag for Saudi Arabia Past Weather in Medina, Saudi Arabia — Yesterday and Last 2 Weeks

Now
108 °F

Sunny.


Feels Like: 101 °F
Forecast: 84 / 116 °F
Wind: 7 mph from West

Location: Madinah

Current Time: Jul 27, 2016 at 12:42:26 PM

Latest Report: Jul 27, 2016 at 12:00 PM


Visibility: 10 mi

Pressure: 29.77 "Hg (27.88 "Hg at 606m altitude)

Humidity: 7%

Dew Point: 30 °F

Location of MedinaLocation

Past Weather in Medina — Graph

°F

Medina Temperature Yesterday

Maximum temperature yesterday: 109 °F (at 3:00 PM)
Minimum temperature yesterday: 90 °F (at 6:00 AM)
Average temperature yesterday: 100 °F

High & Low Weather Summary for the Past Weeks

 TemperatureHumidityPressure
High117 °F (Jul 22, 3:00 PM)44% (Jul 25, 4:00 AM)29.89 "Hg (Jul 25, 4:00 AM)
Low86 °F (Jul 18, 6:00 AM)1% (Jul 17, 4:00 PM)29.59 "Hg (Jul 24, 4:00 PM)
Average100 °F11%29.77 "Hg
* Reported Jul 12 11:00 AM — Jul 27 11:00 AM, Medina, Weather by CustomWeather, © 2016

Note: Actual official high and low records may vary slightly from our data, if they occured in-between our weather recording intervals... More about our weather records

Advertising

Medina Weather History for the Previous 24 Hours

Scroll right to see more
 ConditionsComfort  
Time TempWeatherWind HumidityBarometerVisibility
11:00 AM
Wed, Jul 27
104 °FSunny.7 mph8%29.80 "Hg10 mi
10:00 AM102 °FSunny.3 mph9%29.80 "Hg10 mi
9:00 AM99 °FSunny.5 mph11%29.80 "Hg10 mi
8:00 AM95 °FSunny.No wind13%29.80 "Hg10 mi
7:00 AM91 °FSunny.No wind16%29.80 "Hg10 mi
6:00 AM86 °FSunny.No wind19%29.80 "Hg10 mi
5:00 AM88 °FClear.No wind18%29.77 "Hg10 mi
4:00 AM90 °FClear.5 mph16%29.77 "Hg10 mi
3:00 AM93 °FClear.6 mph14%29.77 "Hg10 mi
2:00 AM93 °FClear.No wind17%29.77 "Hg10 mi
1:00 AM95 °FClear.No wind12%29.77 "Hg10 mi
12:00 AM99 °FClear.6 mph10%29.77 "Hg10 mi
11:00 PM
Tue, Jul 26
100 °FClear.6 mph8%29.77 "Hg10 mi
10:00 PM102 °FClear.No wind6%29.77 "Hg10 mi
9:00 PM104 °FClear.9 mph6%29.74 "Hg10 mi
8:00 PM106 °FClear.12 mph4%29.74 "Hg10 mi
7:00 PM108 °FSunny.12 mph4%29.74 "Hg10 mi
6:00 PM108 °FSunny.14 mph4%29.71 "Hg10 mi
5:00 PM109 °FSunny.9 mph4%29.74 "Hg10 mi
4:00 PM109 °FSunny.14 mph4%29.74 "Hg10 mi
3:00 PM109 °FSunny.12 mph3%29.74 "Hg10 mi
2:00 PM108 °FSunny.13 mph4%29.77 "Hg10 mi
1:00 PM108 °FSunny.16 mph4%29.77 "Hg10 mi
12:00 PM104 °FSunny.14 mph5%29.77 "Hg10 mi
Weather by CustomWeather, © 2016

See weather overviewHow to use our weather pages